MICROMAS-2A (43131 NORAD) Tracking and Keplerian Element Data

This shows tracking and keplerian element data for the satellite.

Feedback or suggestion? Click here.




ElementValue
Catalog43131
NameMICROMAS-2A
Epoch Orbit5131
Epoch Day349.4915753
Epoch Year2018
RAAN52.5707
Inclination97.5135
Eccentricity0.0009812
Argument of Perigee174.3722
Mean Anonmoly185.7626
Mean Motion15.23440616
Decay Rate1.531E-05
L11 43131U 18004W 18349.49157530 .00001531 00000-0 67256-4 0 9994
L22 43131 97.5135 52.5707 0009812 174.3722 185.7626 15.23440616 51313

Live tracking and technical data element details for MICROMAS-2A (NORAD 43131). MICROMAS-2A can be tracked NOW for your location showing map with azimuth and elevation plus other details from your city location.

Track the satellite on the map from your city or location and see movement details for azimuth, elevation, latitude, longitude, range, height, and movement on the map or in text.







IsCatalogInMostPopularTable: catalog: 43131, numindb: 191
Update: records affected: 1



GetName: 43131 MICROMAS-2A

Hit Count: updated at: Sun, 16 Dec 2018 09:57:08 GMT